SCP
0 0 0 0 0 0 0 0 0 0 0 0 0 1 1 2 2 2 2 2 3 5 6 6 4 4 5 4 4 3 3 3 5 6 7 7 6 4 3 2 2 2 2 2
0 0 0 0 0 0 0 0 0 0 0 0 0 1 1 2 2 2 2 2 4 7 8 6 5 5 5 5 4 3 3 4 6 7 7 7 6 4 3 3 2 2 2 2
0 0 0 0 0 0 0 0 0 0 0 0 0 1 2 2 3 2 2 3 6 9 9 6 5 5 5 4 3 4 5 7 8 8 7 6 5 4 4 3 3 2 2 2
0 0 0 0 0 0 0 0 0 0 0 0 1 1 2 3 3 3 2 5 9 11 9 6 5 5 5 4 4 5 8 9 9 8 7 5 4 4 5 4 3 3 2 2
0 0 0 0 0 0 0 0 0 0 0 0 0 1 2 3 3 3 4 7 10 10 8 6 5 5 5 5 5 7 10 9 8 8 6 5 4 5 5 5 4 3 3 3
0 0 0 0 0 0 0 0 0 0 0 0 0 1 2 3 3 4 6 8 9 7 6 5 5 5 5 5 6 8 8 7 7 7 6 5 5 5 5 5 5 4 4 4
0 0 0 0 0 0 0 0 0 0 1 0 0 1 3 5 5 6 7 7 6 5 4 5 5 5 5 5 5 6 7 7 6 6 6 6 6 6 6 5 5 5 4 4
0 0 0 0 0 0 0 0 0 0 0 0 0 2 5 7 7 7 7 6 4 4 4 5 5 5 5 5 5 6 7 7 6 6 6 6 6 6 6 5 5 5 4 4
0 0 0 0 0 0 0 0 0 0 0 0 1 2 5 6 6 6 6 7 7 6 5 5 5 5 5 5 5 6 6 7 7 6 6 7 7 6 6 6 6 5 5 5
0 0 0 0 0 0 0 0 0 0 0 0 1 2 3 3 4 6 7 8 10 9 7 5 5 5 5 4 4 5 6 7 7 6 6 6 7 6 6 6 7 7 7 8
0 0 0 0 0 0 0 0 0 0 0 0 1 1 2 3 5 6 6 7 10 10 8 6 5 5 4 4 3 4 6 6 6 6 7 7 6 7 7 7 8 9 11 13
0 0 0 0 0 0 0 0 0 0 0 0 1 1 2 4 6 7 6 6 7 8 7 6 5 5 4 4 4 5 6 6 6 7 8 8 8 8 8 9 9 11 14 16
0 0 0 0 0 0 0 0 0 0 0 0 1 3 4 6 8 9 8 7 8 9 8 6 5 5 4 4 5 6 6 7 7 8 10 11 10 10 10 11 11 11 14 16
0 0 0 0 0 0 0 0 0 0 0 1 2 4 5 7 9 10 9 10 10 10 8 6 5 5 5 5 5 6 6 7 8 10 11 13 13 13 13 13 12 12 13 14
0 0 0 0 0 0 0 0 0 0 1 1 1 3 4 6 9 10 9 9 9 8 6 5 5 6 7 6 6 5 5 7 9 11 13 15 18 19 18 16 13 12 12 12
0 0 0 0 0 0 0 0 0 1 1 1 1 2 3 4 6 8 8 8 6 5 5 5 6 7 7 6 6 6 7 9 10 11 13 16 20 21 19 16 14 13 12 12
0 0 0 0 0 0 0 1 2 2 3 2 2 3 4 4 5 6 8 7 6 6 7 7 7 7 7 6 7 9 11 11 11 11 11 13 15 16 15 14 14 14 13 13
0 0 0 0 0 0 1 2 3 3 3 3 3 4 4 4 6 7 7 6 6 7 8 7 7 7 7 6 8 13 16 14 12 10 9 10 10 11 12 13 15 15 14 13
0 0 0 0 0 1 1 2 3 3 3 3 3 4 4 4 5 6 6 5 7 8 8 7 7 7 7 7 11 16 16 13 11 9 8 9 10 10 12 13 14 14 14 14
0 0 0 0 0 1 2 3 3 2 3 3 3 3 3 4 4 4 4 5 8 9 9 8 7 8 9 9 12 15 13 11 10 8 9 10 11 11 11 11 11 11 12 13
0 0 0 0 1 1 2 2 3 3 3 4 4 4 4 4 4 4 4 5 8 9 9 10 10 10 11 11 12 12 11 10 10 9 9 10 10 9 8 9 9 9 9 10
1 1 0 1 1 1 2 2 2 2 3 4 5 5 5 4 4 5 4 5 7 8 9 10 11 12 14 14 13 13 12 12 12 11 10 10 9 8 8 8 8 9 9 10
1 1 1 1 1 1 1 1 2 2 2 3 3 4 4 4 5 6 6 6 6 7 8 9 11 14 17 17 16 14 13 14 15 15 13 11 11 10 10 9 9 10 11 11
1 1 1 1 1 1 1 1 1 1 1 2 2 2 3 4 5 7 8 8 8 8 9 10 11 15 18 19 17 15 14 15 17 18 16 13 11 10 10 9 9 9 9 9
1 2 1 1 1 1 1 1 1 1 1 1 2 3 3 4 5 7 9 11 10 10 11 11 11 14 16 17 16 15 15 17 16 17 16 13 10 9 8 8 7 6 6 6
1 1 1 1 1 1 1 1 0 0 1 1 2 3 4 4 5 7 9 12 12 12 12 12 11 12 13 14 14 13 15 18 16 15 14 12 10 8 7 7 6 5 5 6
Wind_Speed
11 11 9 7 8 9 9 8 5 3 1 4 3 3 8 9 11 11 11 11 13 13 13 13 13 13 12 11 9 8 7 6 4 3 3 2 2 2 2 2 3 3 2 2
12 13 11 9 9 9 10 10 7 4 3 4 5 4 6 9 11 11 12 13 14 14 14 13 13 13 13 12 11 9 7 7 6 4 3 3 3 2 2 2 3 2 2 2
14 10 8 9 10 10 12 9 7 7 5 7 7 5 4 7 9 10 11 12 12 14 16 15 14 13 13 12 12 10 9 8 7 6 4 3 3 1 2 3 3 2 2 1
13 12 10 10 11 11 10 8 9 10 9 7 7 5 4 6 8 8 9 10 11 13 14 15 15 14 14 13 12 10 10 8 7 6 5 6 5 3 3 2 3 3 2 2
12 11 11 12 11 10 9 9 10 12 11 11 11 8 4 7 8 9 10 10 10 11 13 14 14 13 13 13 12 11 10 9 8 7 6 5 4 3 3 3 4 3 3 2
15 11 10 11 10 10 9 11 11 10 9 10 11 9 3 4 7 8 8 9 9 10 11 12 11 11 11 13 12 12 11 9 8 7 7 6 5 4 4 4 3 3 2 3
14 14 11 10 11 9 10 10 7 6 6 8 7 7 2 4 6 7 8 10 10 10 12 12 12 12 11 12 13 13 12 10 10 9 7 6 5 5 5 4 5 4 3 3
11 11 11 10 9 8 10 10 7 8 7 6 5 5 1 3 5 6 7 8 8 9 10 12 12 11 10 12 12 12 13 11 11 9 7 6 5 5 4 5 4 4 3 3
9 8 7 8 8 10 10 9 10 10 11 10 6 4 3 2 2 3 6 8 7 8 9 11 12 11 9 8 9 11 12 11 11 11 8 7 6 5 5 5 5 3 3 3
10 9 10 9 9 12 12 11 8 8 7 8 8 5 2 2 2 2 1 5 7 8 8 9 10 11 11 10 9 9 10 10 10 10 9 8 7 6 5 5 5 4 4 3
12 12 10 9 10 11 10 11 10 8 7 8 7 4 2 5 4 4 4 4 6 6 7 7 7 9 10 10 10 11 11 10 10 9 8 8 8 7 6 5 4 5 4 4
8 10 10 11 10 10 10 11 10 8 7 8 8 6 2 4 4 3 3 4 5 4 4 6 7 8 8 9 9 9 9 10 9 8 7 7 7 7 8 7 5 4 5 5
6 8 10 10 9 9 9 10 10 10 9 9 9 5 2 2 3 3 4 4 5 6 4 5 6 6 7 6 7 7 8 9 8 8 8 7 7 7 6 6 6 5 5 5
6 10 13 12 8 6 9 12 11 11 9 9 9 5 4 2 2 2 3 4 3 4 4 5 5 5 5 5 5 5 5 7 7 7 7 7 7 6 6 5 5 5 5 5
8 12 13 14 13 11 12 13 12 12 12 11 9 8 6 2 1 2 3 3 2 3 3 4 4 5 5 5 5 5 4 5 6 6 7 6 6 6 5 5 4 5 5 6
7 11 13 14 15 15 14 14 14 13 11 9 8 7 2 2 3 3 4 3 3 2 2 2 4 5 5 5 5 4 4 4 5 6 6 5 5 5 5 5 6 5 5 5
9 10 12 13 15 16 16 12 12 10 7 7 6 4 2 3 4 5 6 5 5 3 3 3 2 3 4 5 5 5 4 5 6 6 5 6 5 5 5 6 6 6 5 5
11 10 9 12 14 18 12 8 7 7 7 6 4 1 3 3 4 7 8 7 6 5 4 3 1 1 2 3 4 5 5 4 5 6 5 5 5 5 5 5 5 5 5 5
12 9 9 11 14 15 12 7 7 5 5 7 4 2 1 2 3 6 7 6 5 5 5 4 3 1 0 2 2 3 5 5 5 6 5 5 5 5 5 5 5 4 5 5
10 8 9 11 14 14 7 6 8 7 4 5 5 4 2 2 1 3 5 5 5 4 4 4 4 2 2 2 2 1 3 4 4 5 5 5 5 5 5 5 5 4 4 5
8 8 11 12 14 9 8 9 8 7 3 6 5 4 4 4 4 3 4 4 4 4 5 5 5 3 3 2 2 2 2 3 3 4 4 4 4 5 5 4 4 4 4 5
8 8 9 10 11 6 8 7 6 5 5 5 5 5 5 4 4 4 4 4 4 5 5 5 4 4 2 1 1 2 1 0 1 2 3 3 3 4 5 5 4 4 5 5
7 5 5 5 3 3 5 6 6 6 6 6 5 4 4 4 3 3 3 3 4 4 4 4 4 4 3 2 2 2 2 2 1 0 2 3 3 3 3 4 5 5 5 5
5 5 6 6 5 6 6 7 7 6 6 6 5 5 4 4 3 3 2 2 2 3 3 4 4 3 3 3 2 1 1 1 0 1 2 3 3 3 3 3 4 4 4 5
9 7 7 8 7 8 6 7 7 7 6 6 6 5 5 5 4 4 3 2 2 2 2 3 3 2 2 2 3 2 1 0 1 2 2 3 3 4 3 4 3 4 3 4
8 8 8 7 6 7 8 8 8 8 7 7 6 5 5 5 5 4 3 2 2 2 2 2 3 3 3 2 2 2 1 1 2 3 3 3 3 3 4 4 4 4 5 5
Wind_Direction
231 241 244 241 248 267 282 290 298 308 261 270 260 201 185 185 183 174 180 186 177 177 171 165 166 162 157 155 156 157 162 155 158 160 157 154 154 150 132 134 135 143 141 130
240 241 250 252 254 267 278 284 295 296 281 288 282 259 207 193 189 183 188 192 183 176 169 166 172 170 166 161 162 163 165 163 166 163 161 163 158 161 153 130 128 136 137 144
240 246 247 256 261 263 268 278 288 290 286 273 274 264 233 212 202 188 195 193 183 179 172 172 177 174 171 168 167 170 169 166 173 168 170 165 147 168 144 139 147 149 144 135
246 249 243 248 255 259 266 283 289 289 287 278 270 263 231 208 201 192 198 195 187 183 175 175 178 178 176 171 170 167 163 165 170 172 179 177 175 177 171 156 147 147 150 148
250 243 241 248 253 259 276 289 284 286 286 284 275 266 222 187 193 188 190 190 190 178 173 174 178 177 174 168 168 164 159 164 168 175 180 181 180 172 155 152 145 157 165 170
259 253 247 255 260 262 273 276 277 280 277 271 275 279 223 192 188 188 175 173 188 173 167 168 171 167 172 168 166 162 159 164 168 175 181 182 178 161 155 158 157 173 170 171
249 246 239 247 253 248 252 259 274 274 258 262 277 276 209 182 163 163 175 171 176 172 165 162 164 168 171 170 169 164 163 168 172 176 181 180 181 172 172 180 175 182 184 175
241 242 228 232 244 255 256 259 258 271 276 280 269 267 274 129 130 147 158 152 156 164 166 161 164 165 168 171 169 167 166 170 175 178 180 179 181 186 184 186 192 191 191 170
258 255 232 224 234 254 259 258 271 274 277 282 266 218 189 175 137 153 151 147 151 155 159 161 164 161 158 169 169 167 164 170 177 180 176 178 183 192 189 183 193 195 181 168
265 271 248 222 226 235 247 265 273 270 282 284 280 266 200 150 149 207 195 160 150 149 151 152 157 162 163 168 171 162 165 169 175 176 180 181 185 191 189 187 186 189 186 174
260 266 256 229 226 238 233 246 259 278 283 288 286 294 152 160 176 182 202 158 132 144 147 150 157 162 163 164 168 166 169 171 176 179 179 181 181 189 189 191 191 186 184 176
259 265 266 255 244 245 243 251 252 260 267 281 287 285 154 152 165 163 136 118 130 134 148 150 154 159 160 166 164 165 168 174 177 173 174 180 182 184 187 191 194 188 181 180
315 277 268 259 243 233 245 260 263 267 271 265 268 278 349 71 97 103 114 110 114 126 157 155 150 152 157 163 161 164 173 172 170 170 177 180 184 187 189 190 185 186 186 182
295 270 273 276 284 279 267 260 259 260 265 271 277 279 285 315 73 72 92 106 129 135 134 139 141 138 145 148 145 153 171 166 165 170 176 180 184 182 185 184 182 185 185 183
266 267 276 282 281 279 278 274 266 261 265 273 286 291 295 297 130 141 100 91 87 104 129 138 139 137 142 143 146 157 174 167 162 166 175 176 180 177 178 175 182 184 191 191
262 282 291 285 281 277 269 268 272 270 269 266 271 279 292 12 67 63 78 85 71 63 80 110 130 138 146 154 159 163 171 161 155 166 173 169 173 174 172 173 178 186 191 189
282 284 287 283 288 288 273 271 276 276 279 285 284 304 27 34 50 43 40 36 48 34 37 41 74 140 155 162 162 168 172 167 164 169 172 168 172 174 176 182 177 181 188 188
260 265 270 274 279 270 279 290 288 290 310 314 309 11 27 68 54 50 50 44 31 16 14 12 19 113 161 166 168 171 170 165 169 170 174 170 175 179 177 180 180 182 185 190
252 256 264 268 266 266 269 293 297 290 304 327 333 10 65 116 96 71 60 48 44 17 2 5 355 3 144 141 146 170 173 172 178 180 182 179 181 182 183 189 188 189 191 197
242 243 250 258 266 270 291 328 321 298 278 2 10 9 24 353 249 65 43 38 36 25 14 7 0 26 37 67 111 147 190 183 188 187 187 182 185 187 186 192 192 195 199 204
243 239 243 254 261 268 323 340 321 291 347 23 25 12 23 32 20 38 32 31 28 24 26 20 15 31 34 44 115 138 170 192 198 188 185 188 192 194 186 189 196 199 207 208
263 258 259 264 264 274 358 352 353 359 3 10 21 15 20 29 19 24 26 25 22 22 22 15 16 20 40 41 107 126 119 306 214 194 184 188 199 214 192 188 197 203 209 216
273 285 289 288 299 5 2 357 356 360 356 354 353 358 2 350 352 2 13 18 18 13 13 3 12 11 8 16 36 76 40 22 13 216 201 204 207 208 189 197 200 206 209 217
290 322 301 299 310 332 346 345 343 347 342 337 341 341 337 327 332 340 356 9 13 6 355 352 355 355 354 354 1 46 43 43 1 248 219 218 213 214 192 207 212 217 217 219
305 305 298 290 302 307 320 338 334 331 332 327 325 325 321 318 321 326 338 350 357 347 343 341 333 336 336 337 341 355 355 323 252 252 241 239 231 214 202 208 218 217 218 214
291 293 286 291 313 310 312 321 324 324 323 321 318 316 313 308 310 318 319 329 335 325 333 330 325 325 324 322 316 313 300 279 257 249 244 247 242 224 217 212 218 223 219 207